| time (UTC) | temp F | wind direction | speed MPH | gust MPH | rain 1hr in | rain 24hr in | rain mn in | humidity % | barometer mb |
| 20260905174557 | 58 | 162 | 0.0 | 4.0 | 0.00 | 0.00 | 0.00 | 67 | 1019.3 |
| 20260905173056 | 56 | 162 | 0.0 | 2.0 | 0.00 | 0.00 | 0.00 | 71 | 1019.6 |
| 20260905171550 | 53 | 162 | 0.0 | 1.0 | 0.00 | 0.00 | 0.00 | 78 | 1019.7 |
| 20260905170046 | 51 | 162 | 0.0 | 2.0 | 0.00 | 0.00 | 0.00 | 80 | 1019.9 |
| 20260905164545 | 49 | 162 | 0.0 | 0.0 | 0.00 | 0.00 | 0.00 | 82 | 1019.9 |
| 20260905163044 | 49 | 162 | 0.0 | 1.0 | 0.00 | 0.00 | 0.00 | 82 | 1019.8 |
| 20260905161543 | 48 | 162 | 0.0 | 1.0 | 0.00 | 0.00 | 0.00 | 84 | 1019.8 |
| 20260905160109 | 48 | 162 | 0.0 | 1.0 | 0.00 | 0.00 | 0.00 | 85 | 1019.9 |
| 20260905154547 | 48 | 162 | 0.0 | 1.0 | 0.00 | 0.00 | 0.00 | 84 | 1019.9 |
| 20260905153042 | 49 | 162 | 0.0 | 1.0 | 0.00 | 0.00 | 0.00 | 81 | 1020.1 |
| 20260905151539 | 49 | 162 | 0.0 | 0.0 | 0.00 | 0.00 | 0.00 | 84 | 1020.1 |
| 20260905150036 | 47 | 162 | 0.0 | 1.0 | 0.00 | 0.00 | 0.00 | 87 | 1020.3 |
| 20260905144534 | 44 | 162 | 0.0 | 1.0 | 0.00 | 0.01 | 0.00 | 92 | 1020.3 |
| 20260905143034 | 43 | 162 | 0.0 | 0.0 | 0.00 | 0.01 | 0.00 | 95 | 1020.2 |
| 20260905141537 | 41 | 161 | 0.0 | 0.0 | 0.00 | 0.01 | 0.00 | 96 | 1020.0 |
| 20260905140031 | 40 | 162 | 0.0 | 0.0 | 0.00 | 0.01 | 0.00 | 96 | 1019.8 |
| 20260905134530 | 39 | 162 | 0.0 | 0.0 | 0.00 | 0.01 | 0.00 | 96 | 1019.6 |
| 20260905133028 | 38 | 162 | 0.0 | 0.0 | 0.00 | 0.01 | 0.00 | 96 | 1019.6 |
| 20260905131526 | 37 | 161 | 0.0 | 0.0 | 0.00 | 0.01 | 0.00 | 96 | 1019.4 |
| 20260905130024 | 36 | 162 | 0.0 | 0.0 | 0.00 | 0.01 | 0.00 | 95 | 1019.0 |
| 20260905124528 | 36 | 162 | 0.0 | 0.0 | 0.00 | 0.01 | 0.00 | 95 | 1018.9 |
| 20260905123019 | 37 | 162 | 0.0 | 0.0 | 0.00 | 0.01 | 0.00 | 95 | 1018.7 |
| 20260905121517 | 36 | 162 | 0.0 | 0.0 | 0.00 | 0.01 | 0.00 | 94 | 1018.5 |
| 20260905120015 | 37 | 162 | 0.0 | 0.0 | 0.00 | 0.01 | 0.00 | 94 | 1018.4 |
| 20260905114514 | 38 | 162 | 0.0 | 0.0 | 0.00 | 0.01 | 0.00 | 93 | 1018.4 |
| 20260905113012 | 39 | 162 | 0.0 | 0.0 | 0.00 | 0.01 | 0.00 | 95 | 1018.1 |
| 20260905111510 | 39 | 162 | 0.0 | 0.0 | 0.00 | 0.01 | 0.00 | 94 | 1018.2 |
| 20260905110010 | 39 | 162 | 0.0 | 0.0 | 0.00 | 0.01 | 0.00 | 94 | 1018.0 |
| 20260905104508 | 39 | 162 | 0.0 | 0.0 | 0.00 | 0.02 | 0.00 | 95 | 1018.0 |
| 20260905103017 | 38 | 162 | 0.0 | 0.0 | 0.00 | 0.02 | 0.00 | 94 | 1018.0 |
| 20260905101505 | 38 | 162 | 0.0 | 0.0 | 0.00 | 0.02 | 0.00 | 93 | 1017.9 |
| 20260905100002 | 40 | 162 | 0.0 | 0.0 | 0.00 | 0.02 | 0.00 | 93 | 1017.8 |
| 20260905094504 | 41 | 161 | 0.0 | 0.0 | 0.00 | 0.14 | 0.00 | 94 | 1017.9 |
| 20260905093100 | 41 | 161 | 0.0 | 0.0 | 0.00 | 0.14 | 0.00 | 94 | 1017.9 |
| 20260905091621 | 40 | 162 | 0.0 | 2.0 | 0.00 | 0.14 | 0.00 | 93 | 1017.8 |
| 20260905090118 | 40 | 162 | 0.0 | 1.0 | 0.00 | 0.14 | 0.00 | 92 | 1017.6 |
| 20260905084606 | 41 | 162 | 0.0 | 1.0 | 0.00 | 0.14 | 0.00 | 94 | 1017.6 |
| 20260905083052 | 41 | 162 | 0.0 | 0.0 | 0.00 | 0.14 | 0.00 | 93 | 1017.4 |
| 20260905081552 | 42 | 162 | 0.0 | 0.0 | 0.00 | 0.14 | 0.00 | 91 | 1017.2 |
| 20260905080053 | 43 | 162 | 0.0 | 2.0 | 0.00 | 0.14 | 0.00 | 89 | 1017.2 |
| 20260905074545 | 44 | 162 | 0.0 | 2.0 | 0.00 | 0.15 | 0.00 | 90 | 1017.4 |
| 20260905073051 | 44 | 162 | 0.0 | 1.0 | 0.00 | 0.15 | 0.00 | 92 | 1017.6 |
| 20260905071545 | 44 | 162 | 0.0 | 1.0 | 0.00 | 0.15 | 0.00 | 89 | 1017.2 |
| 20260905070041 | 44 | 162 | 0.0 | 2.0 | 0.00 | 0.15 | 0.00 | 92 | 1016.9 |
| 20260905064541 | 44 | 162 | 0.0 | 0.0 | 0.00 | 0.15 | 0.00 | 89 | 1016.7 |
| 20260905063035 | 46 | 162 | 0.0 | 1.0 | 0.00 | 0.15 | 0.00 | 89 | 1016.8 |
| 20260905061536 | 45 | 162 | 0.0 | 0.0 | 0.00 | 0.15 | 0.00 | 88 | 1016.7 |
| 20260905060028 | 47 | 162 | 0.0 | 0.0 | 0.00 | 0.15 | 0.00 | 88 | 1016.7 |
| 20260905054526 | 47 | 162 | 0.0 | 1.0 | 0.00 | 0.15 | 0.15 | 88 | 1016.7 |
| 20260905053026 | 49 | 161 | 0.0 | 0.0 | 0.00 | 0.15 | 0.15 | 85 | 1016.8 |
| 20260905051534 | 50 | 161 | 0.0 | 0.0 | 0.00 | 0.15 | 0.15 | 81 | 1016.7 |
| 20260905050029 | 50 | 162 | 0.0 | 1.0 | 0.00 | 0.15 | 0.15 | 85 | 1016.8 |
| 20260905044532 | 51 | 162 | 0.0 | 1.0 | 0.00 | 0.15 | 0.15 | 83 | 1016.7 |
| 20260905043027 | 51 | 162 | 0.0 | 1.0 | 0.00 | 0.15 | 0.15 | 81 | 1016.5 |
| 20260905041522 | 53 | 161 | 0.0 | 2.0 | 0.00 | 0.15 | 0.15 | 75 | 1016.5 |
| 20260905040021 | 54 | 162 | 2.0 | 3.0 | 0.00 | 0.15 | 0.15 | 72 | 1016.3 |
| 20260905034521 | 54 | 161 | 0.0 | 0.0 | 0.00 | 0.15 | 0.15 | 77 | 1016.5 |
| 20260905033029 | 56 | 162 | 0.0 | 3.0 | 0.00 | 0.15 | 0.15 | 68 | 1016.3 |
| 20260905031517 | 55 | 162 | 0.0 | 2.0 | 0.00 | 0.15 | 0.15 | 73 | 1016.1 |
| 20260905030031 | 56 | 162 | 0.0 | 1.0 | 0.00 | 0.15 | 0.15 | 73 | 1016.0 |
| 20260905024518 | 57 | 162 | 0.0 | 2.0 | 0.00 | 0.15 | 0.15 | 69 | 1015.8 |
| 20260905023014 | 57 | 161 | 0.0 | 0.0 | 0.00 | 0.15 | 0.15 | 71 | 1015.6 |
| 20260905021511 | 59 | 162 | 0.0 | 1.0 | 0.00 | 0.15 | 0.15 | 63 | 1015.4 |
| 20260905020011 | 60 | 162 | 0.0 | 1.0 | 0.00 | 0.15 | 0.15 | 64 | 1015.4 |
| 20260905014510 | 62 | 162 | 0.0 | 1.0 | 0.00 | 0.15 | 0.15 | 57 | 1015.3 |
| 20260905013012 | 62 | 162 | 0.0 | 3.0 | 0.00 | 0.15 | 0.15 | 55 | 1015.2 |
| 20260905011508 | 65 | 162 | 0.0 | 1.0 | 0.00 | 0.15 | 0.15 | 50 | 1014.9 |
| 20260905010008 | 64 | 162 | 0.0 | 2.0 | 0.00 | 0.15 | 0.15 | 52 | 1014.9 |
| 20260905004506 | 62 | 162 | 0.0 | 2.0 | 0.00 | 0.15 | 0.15 | 54 | 1014.9 |
| 20260905003006 | 63 | 162 | 0.0 | 1.0 | 0.00 | 0.15 | 0.15 | 53 | 1015.1 |
| 20260905001516 | 63 | 162 | 0.0 | 4.0 | 0.00 | 0.15 | 0.15 | 52 | 1015.2 |
| 20260905000005 | 65 | 162 | 1.0 | 6.0 | 0.00 | 0.15 | 0.15 | 51 | 1014.8 |
| 20260904234505 | 63 | 161 | 0.0 | 3.0 | 0.00 | 0.15 | 0.15 | 58 | 1014.9 |
| 20260904233007 | 64 | 162 | 1.0 | 4.0 | 0.00 | 0.15 | 0.15 | 54 | 1014.8 |
| 20260904231503 | 63 | 161 | 0.0 | 5.0 | 0.00 | 0.15 | 0.15 | 53 | 1015.0 |
| 20260904230112 | 65 | 162 | 1.0 | 4.0 | 0.00 | 0.15 | 0.15 | 54 | 1014.9 |
| 20260904224601 | 62 | 162 | 1.0 | 3.0 | 0.00 | 0.15 | 0.15 | 56 | 1015.0 |
| 20260904223130 | 62 | 161 | 0.0 | 2.0 | 0.00 | 0.15 | 0.15 | 57 | 1015.1 |
| 20260904221559 | 62 | 162 | 1.0 | 2.0 | 0.00 | 0.15 | 0.15 | 59 | 1015.0 |
| 20260904220056 | 61 | 162 | 0.0 | 2.0 | 0.00 | 0.15 | 0.15 | 63 | 1015.0 |
| 20260904214602 | 61 | 161 | 3.0 | 5.0 | 0.00 | 0.15 | 0.15 | 57 | 1015.1 |
| 20260904213055 | 61 | 162 | 0.0 | 3.0 | 0.00 | 0.15 | 0.15 | 58 | 1015.1 |
| 20260904211554 | 63 | 162 | 1.0 | 2.0 | 0.00 | 0.15 | 0.15 | 57 | 1015.0 |
| 20260904210101 | 63 | 162 | 1.0 | 3.0 | 0.00 | 0.15 | 0.15 | 57 | 1014.8 |
| 20260904204552 | 61 | 162 | 1.0 | 5.0 | 0.00 | 0.15 | 0.15 | 60 | 1014.7 |
| 20260904203056 | 61 | 162 | 0.0 | 2.0 | 0.00 | 0.15 | 0.15 | 62 | 1014.5 |
| 20260904201543 | 60 | 161 | 1.0 | 2.0 | 0.00 | 0.15 | 0.15 | 67 | 1014.5 |
| 20260904200039 | 59 | 162 | 0.0 | 2.0 | 0.00 | 0.15 | 0.15 | 69 | 1014.6 |
| 20260904194537 | 58 | 161 | 0.0 | 2.0 | 0.00 | 0.15 | 0.15 | 71 | 1014.7 |
| 20260904193035 | 58 | 162 | 0.0 | 2.0 | 0.00 | 0.15 | 0.15 | 74 | 1014.5 |
| 20260904191531 | 56 | 162 | 0.0 | 2.0 | 0.00 | 0.15 | 0.15 | 77 | 1014.6 |
| 20260904190034 | 57 | 162 | 0.0 | 2.0 | 0.00 | 0.15 | 0.15 | 76 | 1014.5 |
| 20260904184528 | 55 | 161 | 1.0 | 3.0 | 0.00 | 0.15 | 0.15 | 80 | 1014.6 |
| 20260904183027 | 55 | 162 | 0.0 | 2.0 | 0.00 | 0.15 | 0.15 | 76 | 1014.5 |
| 20260904181531 | 55 | 161 | 0.0 | 2.0 | 0.00 | 0.15 | 0.15 | 78 | 1014.4 |
| 20260904180023 | 55 | 162 | 1.0 | 3.0 | 0.00 | 0.15 | 0.15 | 79 | 1014.3 |